{"data":{"norad_id":65475,"epoch":"2026-05-24T19:24:42.507648Z","epoch_age_seconds":81649,"freshness":"FRESH","line1":"1 65475U 25195T   26144.80882532  .00036006  00000+0  10710-2 0  9997","line2":"2 65475  53.1591 264.2074 0000486  92.2258 267.8800 15.34420145 41638","mean_motion":15.34420145,"eccentricity":4.86e-5,"inclination_deg":53.1591,"raan_deg":264.2074,"arg_perigee_deg":92.2258,"mean_anomaly_deg":267.88,"bstar":0.001071,"rev_number":4163,"period_min":93.846525978711,"perigee_km":462.31090375104,"apogee_km":462.97582760258,"semimajor_km":6840.7803656768,"source":"CELESTRAK","updated_at":"2026-05-25T13:38:20.815569Z"}}